STARLINK-3829 (52348 NORAD) Tracking and Keplerian Element Data
This shows tracking and keplerian element data for the satellite.
Feedback or suggestion? Click here.
Element | Value |
Catalog | 52348 |
Name | STARLINK-3829 |
Epoch Orbit | 130 |
Epoch Day | 167.08334491 |
Epoch Year | 2022 |
RAAN | 202.9652 |
Inclination | 53.2174 |
Eccentricity | 0.0001408 |
Argument of Perigee | 53.2233 |
Mean Anonmoly | 99.2707 |
Mean Motion | 15.62252981 |
Decay Rate | -0.00714892 |
L1 | 1 52348U 22045T 22167.08334491 -.00714892 00000+0 -86835-2 0 9999 |
L2 | 2 52348 53.2174 202.9652 0001408 53.2233 99.2707 15.62252981 1302 |
Live tracking and technical data element details for STARLINK-3829 (NORAD 52348). STARLINK-3829 can be tracked NOW for your location showing map with azimuth and elevation plus other details from your city location.
Track the satellite on the map from your city or location and see movement details for azimuth, elevation, latitude, longitude, range, height, and movement on the map or in text.
IsCatalogInMostPopularTable: catalog: 52348, numindb: 4
Update: records affected: 1
GetName: 52348 STARLINK-3829
Hit Count: updated at: Sat, 25 Jun 2022 03:56:03 GMT